Weather History for KMZZ - June, 2013

Change the Weather History Date:

Monday, June 10, 2013

  Actual Average (KMIE) Record (KMIE)
Temperature  
Mean Temperature 69 °F 70 °F  
Max Temperature 75 °F 80 °F 94 °F (1968)
Min Temperature 63 °F 60 °F 44 °F (1988)
Degree Days  
Heating Degree Days 0 1  
Month to date heating degree days 15  
Since 1 June heating degree days 15  
Since 1 July heating degree days 5774  
Cooling Degree Days 4 6  
Month to date cooling degree days 52  
Year to date cooling degree days 135  
Since 1 June cooling degree days 52  
Growing Degree Days 19 (Base 50)    
Moisture  
Dew Point 62 °F    
Average Humidity 79    
Maximum Humidity 94    
Minimum Humidity 58    
Precipitation  
Precipitation 0.55 in 0.15 in 0.89 in (2006)
Month to date precipitation 1.63  
Year to date precipitation 17.20  
Sea Level Pressure  
Sea Level Pressure 29.82 in    
Wind  
Wind Speed 8 mph (SW)    
Max Wind Speed 17 mph    
Max Gust Speed 23 mph    
Visibility 7 miles    
Events Rain    
T = Trace of Precipitation, MM = Missing Value Source: NWS Daily Summary

Daily Weather History Graph

Daily Weather History Graph

Search for Another Location

Airport or City:

Trip Planner

Search our weather history database for the weather conditions in past years. The results will help you decide how hot, cold, wet, or windy it might be!

Date:

Astronomy

Jun. 10, 2013 Rise Set
Actual Time 6:11 AM EDT 9:12 PM EDT
Civil Twilight 5:38 AM EDT 9:45 PM EDT
Nautical Twilight 4:56 AM EDT 10:27 PM EDT
Astronomical Twilight 4:07 AM EDT 11:17 PM EDT
Moon 8:00 AM EDT (6/10) 10:38 PM EDT (6/10)
Length of Visible Light 16h 06m
Length of Day
15h 00m
Waxing Crescent, 4% of the Moon is Illuminated
Jun 10
Waxing Crescent
Jun 16
First Quarter
Jun 23
Full
Jun 30
Last Quarter
Jul 8
New

Hourly Weather History & Observations

Time (EDT) Temp. Dew Point Humidity Pressure Visibility Wind Dir Wind Speed Gust Speed Precip Events Conditions
12:15 AM 68.0 °F 63.9 °F 87% 29.88 in 7.0 mi SE 5.8 mph - N/A Rain Light Rain
12:35 AM 68.0 °F 64.0 °F 87% 29.88 in 5.0 mi SE 6.9 mph - 0.01 in Rain Light Rain
12:55 AM 68.0 °F 64.4 °F 88% 29.87 in 4.0 mi SE 5.8 mph - 0.05 in Rain Light Rain
1:15 AM 68.0 °F 63.9 °F 87% 29.86 in 5.0 mi SSE 8.1 mph - 0.02 in Rain Light Rain
1:35 AM 67.5 °F 63.1 °F 86% 29.85 in 5.0 mi SSE 8.1 mph - 0.04 in Rain Light Rain
1:55 AM 66.7 °F 62.6 °F 86% 29.85 in 7.0 mi WSW 8.1 mph - 0.06 in Rain Light Rain
2:15 AM 64.9 °F 61.9 °F 90% 29.85 in 5.0 mi West 3.5 mph - 0.07 in Rain Light Rain
2:35 AM 64.4 °F 62.1 °F 92% 29.84 in 5.0 mi Calm Calm - 0.11 in Rain Light Rain
2:55 AM 64.6 °F 62.4 °F 93% 29.83 in 7.0 mi North 3.5 mph - 0.14 in   Overcast
3:15 AM 64.4 °F 62.6 °F 94% 29.82 in 5.0 mi East 4.6 mph - 0.02 in Rain Light Rain
3:35 AM 64.4 °F 62.2 °F 93% 29.82 in 7.0 mi SE 3.5 mph - 0.05 in Rain Light Rain
3:55 AM 64.8 °F 62.6 °F 93% 29.81 in 7.0 mi SE 3.5 mph - 0.06 in Rain Light Rain
4:15 AM 65.1 °F 62.8 °F 92% 29.80 in 7.0 mi SSE 4.6 mph - 0.01 in Rain Light Rain
4:35 AM 65.3 °F 63.1 °F 93% 29.79 in 4.0 mi SSE 5.8 mph - 0.06 in Rain Rain
4:55 AM 65.5 °F 63.5 °F 93% 29.79 in 2.0 mi South 8.1 mph - 0.20 in Rain Rain
5:15 AM 65.7 °F 63.5 °F 93% 29.79 in 7.0 mi South 9.2 mph - 0.03 in Rain Light Rain
5:35 AM 65.1 °F 62.6 °F 92% 29.79 in 5.0 mi South 5.8 mph - 0.04 in   Overcast
5:55 AM 64.6 °F 62.1 °F 92% 29.79 in 10.0 mi South 6.9 mph - 0.04 in   Overcast
6:15 AM 64.4 °F 62.1 °F 92% 29.80 in 7.0 mi South 5.8 mph - N/A   Overcast
6:35 AM 64.2 °F 62.1 °F 93% 29.80 in 7.0 mi SSW 4.6 mph - N/A   Overcast
6:55 AM 63.9 °F 61.7 °F 93% 29.81 in 5.0 mi South 8.1 mph - N/A   Overcast
7:15 AM 63.9 °F 61.9 °F 93% 29.81 in 5.0 mi South 6.9 mph - N/A   Overcast
7:35 AM 64.0 °F 61.9 °F 93% 29.81 in 7.0 mi South 5.8 mph - N/A   Overcast
7:55 AM 64.4 °F 62.2 °F 93% 29.81 in 7.0 mi SSW 6.9 mph - N/A   Overcast
8:15 AM 64.8 °F 62.6 °F 93% 29.82 in 7.0 mi West 8.1 mph - N/A   Overcast
8:35 AM 65.3 °F 63.1 °F 93% 29.82 in 5.0 mi SW 8.1 mph - N/A   Overcast
8:55 AM 65.7 °F 63.5 °F 93% 29.82 in 7.0 mi SW 10.4 mph - N/A   Overcast
9:15 AM 66.2 °F 63.3 °F 90% 29.82 in 7.0 mi WSW 12.7 mph 17.3 mph N/A   Overcast
9:35 AM 66.4 °F 62.6 °F 88% 29.82 in 7.0 mi WSW 11.5 mph - N/A   Overcast
9:55 AM 67.6 °F 62.6 °F 84% 29.82 in 10.0 mi WSW 10.4 mph - N/A   Mostly Cloudy
10:15 AM 68.5 °F 62.2 °F 80% 29.82 in 7.0 mi WSW 12.7 mph 17.3 mph N/A   Mostly Cloudy
10:35 AM 69.4 °F 61.3 °F 75% 29.81 in 10.0 mi SW 13.8 mph 18.4 mph N/A   Mostly Cloudy
10:55 AM 70.2 °F 61.0 °F 73% 29.81 in 7.0 mi WSW 13.8 mph - N/A   Scattered Clouds
11:15 AM 70.5 °F 60.4 °F 70% 29.81 in 7.0 mi WSW 11.5 mph - N/A   Scattered Clouds
11:35 AM 71.2 °F 60.8 °F 69% 29.82 in 10.0 mi WSW 11.5 mph - N/A   Scattered Clouds
11:55 AM 71.6 °F 60.6 °F 68% 29.82 in 10.0 mi WSW 11.5 mph 19.6 mph N/A   Mostly Cloudy
12:15 PM 72.3 °F 61.3 °F 68% 29.82 in 10.0 mi WSW 12.7 mph 18.4 mph N/A   Mostly Cloudy
12:35 PM 72.7 °F 61.2 °F 67% 29.82 in 7.0 mi WSW 15.0 mph 19.6 mph N/A   Mostly Cloudy
12:55 PM 72.7 °F 61.0 °F 67% 29.81 in 7.0 mi WSW 13.8 mph - N/A   Mostly Cloudy
1:15 PM 73.8 °F 60.6 °F 63% 29.81 in 10.0 mi WSW 17.3 mph 23.0 mph N/A   Mostly Cloudy
1:35 PM 73.8 °F 60.3 °F 63% 29.81 in 10.0 mi West 16.1 mph 21.9 mph N/A   Mostly Cloudy
1:55 PM 74.3 °F 61.2 °F 63% 29.80 in 10.0 mi WSW 17.3 mph 20.7 mph N/A   Scattered Clouds
2:15 PM 74.3 °F 60.3 °F 61% 29.80 in 10.0 mi West 17.3 mph - N/A   Scattered Clouds
2:35 PM 74.1 °F 60.4 °F 62% 29.80 in 10.0 mi WSW 16.1 mph 21.9 mph N/A   Scattered Clouds
2:55 PM 74.5 °F 60.6 °F 62% 29.80 in 7.0 mi West 15.0 mph - N/A   Mostly Cloudy
3:15 PM 74.1 °F 60.6 °F 63% 29.80 in 7.0 mi WSW 11.5 mph - N/A   Mostly Cloudy
3:35 PM 74.3 °F 60.4 °F 62% 29.80 in 10.0 mi WSW 12.7 mph - N/A   Mostly Cloudy
3:55 PM 73.8 °F 60.8 °F 64% 29.80 in 10.0 mi West 15.0 mph 20.7 mph N/A   Mostly Cloudy
4:15 PM 72.1 °F 61.2 °F 68% 29.80 in 7.0 mi WSW 8.1 mph - N/A   Overcast
4:35 PM 74.8 °F 61.2 °F 62% 29.80 in 10.0 mi West 12.7 mph - N/A   Scattered Clouds
4:55 PM 74.8 °F 60.6 °F 61% 29.79 in 10.0 mi West 15.0 mph 20.7 mph N/A   Scattered Clouds
5:15 PM 75.0 °F 59.5 °F 58% 29.79 in 7.0 mi West 13.8 mph - N/A   Scattered Clouds
5:35 PM 74.7 °F 59.5 °F 59% 29.79 in 10.0 mi West 10.4 mph 17.3 mph N/A   Mostly Cloudy
5:55 PM 74.1 °F 60.4 °F 62% 29.79 in 7.0 mi WSW 11.5 mph - N/A   Scattered Clouds
6:15 PM 74.5 °F 60.8 °F 62% 29.79 in 10.0 mi West 11.5 mph - N/A   Scattered Clouds
6:35 PM 74.5 °F 61.0 °F 63% 29.79 in 10.0 mi WSW 10.4 mph - N/A   Mostly Cloudy
6:55 PM 74.3 °F 61.2 °F 63% 29.80 in 7.0 mi West 12.7 mph - N/A   Mostly Cloudy
7:15 PM 75.0 °F 61.2 °F 62% 29.80 in 7.0 mi West 13.8 mph - N/A   Mostly Cloudy
7:35 PM 74.1 °F 60.1 °F 61% 29.80 in 7.0 mi West 10.4 mph - N/A   Overcast
7:55 PM 72.3 °F 60.8 °F 67% 29.82 in 5.0 mi NW 9.2 mph 20.7 mph N/A Rain Light Rain
8:15 PM 68.9 °F 61.7 °F 78% 29.82 in 4.0 mi WNW 8.1 mph - N/A   Haze
8:35 PM 68.9 °F 61.7 °F 78% 29.81 in 10.0 mi WNW 5.8 mph - N/A   Overcast
8:55 PM 69.1 °F 62.2 °F 79% 29.81 in 4.0 mi West 5.8 mph - N/A   Haze
9:15 PM 68.5 °F 62.4 °F 81% 29.82 in 4.0 mi WSW 4.6 mph - N/A   Haze
9:35 PM 67.8 °F 62.4 °F 83% 29.82 in 5.0 mi WSW 6.9 mph - N/A   Haze
9:55 PM 67.3 °F 62.1 °F 83% 29.83 in 7.0 mi WSW 8.1 mph - N/A   Clear
10:15 PM 66.9 °F 61.9 °F 84% 29.84 in 7.0 mi WSW 8.1 mph - N/A   Clear
10:35 PM 66.6 °F 61.7 °F 84% 29.85 in 7.0 mi WSW 8.1 mph - N/A   Clear
10:55 PM 66.4 °F 61.7 °F 85% 29.86 in 10.0 mi SW 8.1 mph - N/A   Clear
11:15 PM 66.2 °F 61.9 °F 86% 29.86 in 10.0 mi SW 6.9 mph - N/A   Clear
11:35 PM 66.2 °F 61.9 °F 86% 29.87 in 7.0 mi WSW 5.8 mph - N/A   Clear
11:55 PM 65.8 °F 61.9 °F 87% 29.87 in 7.0 mi West 4.6 mph - N/A   Clear